Location: Vinland
(47.7731°N, 122.6974°W)
Time: 01:23:19
(UTC+00:00)

S-56A Canister/Altair - Pass Details

Date: 29 March 2023
Orbit: 639 x 2492 km, 38.9° (Epoch: 31 May)

Event Time Altitude Azimuth Distance (km) Brightness Sun altitude
Rises 08:21:59 0° 281° (W) 5,921 12.1 -38.9°
Reaches altitude 10° 08:26:29 10° 271° (W) 5,051 11.6 -38.8°
Enters shadow 08:31:49 22° 253° (WSW) 4,241 11.0 -38.8°
